SCP
-0 0 0 0 0 0 0 0 -0 -0 -0 -0 -0 -0 -0 -0 -0 -0 -0 -0 -0 -0 -0 0 0 0 -0 0 -0 -0 -0 -0 -0 -0 -0 -0 -0 -0 -0 -0 -0 -0 -0
0 0 0 0 0 0 0 -0 -0 -0 -0 -0 -0 -0 -0 -0 -0 -0 -0 -0 -0 -0 -0 0 0 0 0 -0 -0 -0 -0 -0 -0 0 0 0 -0 -0 -0 0 -0 0 -0
-0 -0 0 0 0 0 0 -0 -0 -0 -0 -0 -0 -0 -0 -0 -0 -0 -0 -0 -0 0 0 0 0 0 0 0 0 0 0 0 0 0 0 0 0 -0 -0 -0 -0 -0 -0
-0 -0 -0 0 -0 0 0 0 -0 -0 -0 -0 -0 -0 -0 -0 -0 -0 0 0 0 0 0 0 0 0 0 0 0 0 0 -0 -0 -0 -0 0 -0 -0 0 0 -0 -0 0
-0 0 -0 0 -0 0 0 0 0 0 -0 -0 -0 -0 -0 -0 0 0 0 0 0 0 -0 -0 -0 0 0 0 0 0 0 -0 -0 -0 -0 -0 0 0 -0 0 -0 -0 -0
0 0 0 -0 -0 -0 0 0 0 0 0 0 0 0 0 0 0 0 0 0 -0 -0 -0 -0 -0 0 0 0 0 0 0 0 0 0 -0 0 -0 0 0 -0 -0 -0 0
0 0 0 -0 -0 -0 -0 -0 -0 0 0 0 0 0 0 0 0 0 0 -0 -0 -0 -0 -0 0 0 -0 -0 -0 -0 -0 0 0 0 0 0 0 0 0 0 0 -0 -0
0 0 0 -0 -0 -0 -0 -0 -0 -0 0 0 0 0 0 0 0 -0 -0 -0 0 -0 0 0 -0 -0 -0 -0 -0 -0 -0 -0 -0 0 0 0 0 0 0 0 0 -0 -0
0 0 -0 -0 0 -0 -0 -0 -0 -0 0 0 0 0 -0 -0 -0 0 0 0 0 0 0 -0 -0 -0 -0 -0 -0 -0 -0 -0 -0 0 -0 0 0 0 0 0 -0 -0 -0
-0 -0 -0 -0 -0 -0 -0 -0 -0 -0 0 0 -0 -0 -0 -0 0 -0 0 0 -0 0 0 -0 -0 -0 -0 -0 -0 -0 -0 -0 0 0 0 0 -0 -0 0 -0 -0 -0 -0
-0 -0 -0 -0 -0 -0 -0 -0 -0 -0 -0 0 0 0 0 -0 -0 -0 -0 -0 -0 -0 0 0 0 -0 -0 -0 -0 -0 0 0 0 0 0 -0 -0 0 0 -0 -0 -0 -0
0 -0 -0 -0 -0 -0 -0 -0 -0 -0 -0 -0 -0 -0 -0 -0 -0 -0 0 -0 -0 -0 -0 -0 -0 0 0 0 0 0 -0 -0 0 0 0 0 0 -0 -0 0 -0 -0 -0
0 0 0 -0 -0 0 0 -0 -0 -0 -0 -0 0 0 -0 -0 -0 -0 -0 -0 -0 0 0 0 0 0 0 0 0 0 0 0 0 0 -0 0 0 0 0 0 -0 -0 -0
-0 -0 0 -0 -0 0 -0 -0 -0 -0 -0 -0 -0 -0 -0 -0 -0 -0 -0 -0 -0 -0 0 0 0 0 0 0 0 0 0 0 0 0 0 -0 0 0 0 0 -0 -0 -0
0 0 -0 -0 -0 0 0 -0 0 0 0 -0 -0 -0 -0 -0 -0 -0 -0 -0 0 0 0 0 0 0 0 0 0 0 0 0 0 0 -0 -0 -0 0 0 0 0 -0 -0
0 -0 -0 -0 -0 0 -0 0 -0 0 0 0 -0 -0 0 0 0 -0 -0 -0 -0 0 0 0 0 0 0 0 0 0 0 0 0 0 0 -0 -0 -0 -0 0 0 0 -0
0 -0 -0 -0 -0 -0 -0 0 -0 0 0 0 -0 -0 -0 0 0 0 0 -0 -0 -0 -0 0 -0 0 0 0 0 0 0 0 0 0 0 -0 -0 -0 -0 0 -0 -0 -0
-0 -0 -0 -0 -0 -0 -0 0 -0 -0 0 -0 -0 0 0 -0 0 0 0 0 0 -0 -0 0 -0 0 0 0 0 0 0 0 0 0 0 0 -0 -0 -0 0 -0 0 0
-0 -0 -0 -0 -0 -0 -0 0 -0 -0 -0 -0 -0 -0 0 0 0 0 0 0 0 0 0 0 0 0 0 0 0 0 0 0 0 0 0 0 0 0 -0 -0 -0 -0 0
-0 -0 -0 -0 -0 -0 -0 -0 -0 -0 -0 -0 -0 0 0 0 0 0 0 0 0 0 0 0 0 0 0 0 0 0 0 0 0 0 0 0 0 0 -0 0 0 0 0
-0 -0 -0 -0 -0 -0 -0 0 0 0 -0 -0 0 -0 0 0 0 0 0 0 0 0 0 0 0 0 0 0 0 0 0 0 0 0 0 0 0 0 0 -0 0 0 -0
-0 -0 -0 -0 -0 -0 -0 -0 0 0 -0 0 0 0 -0 0 0 0 0 0 0 0 0 0 0 0 0 0 0 0 0 0 0 0 0 0 0 0 0 0 0 0 -0
-0 -0 -0 -0 -0 -0 -0 0 0 0 0 0 0 0 -0 0 0 0 0 0 0 0 0 0 0 0 0 0 0 0 0 0 0 0 0 0 0 0 0 0 0 0 0
-0 -0 -0 -0 -0 -0 -0 -0 -0 -0 -0 -0 -0 -0 0 0 0 -0 -0 0 0 0 0 0 0 0 0 0 0 0 1 0 0 0 0 0 0 0 0 0 0 0 0
-0 -0 -0 -0 -0 -0 -0 -0 -0 -0 -0 0 0 0 0 0 0 0 0 0 0 0 0 0 0 1 1 1 1 1 1 1 0 1 0 0 0 0 0 0 0 0 0
-0 -0 -0 -0 -0 -0 -0 -0 -0 -0 0 0 0 0 0 0 -0 -0 0 0 0 0 0 1 1 1 1 1 1 1 1 1 1 1 1 1 0 0 0 0 0 0 0
Wind_Speed_500mb
63 60 61 58 54 47 42 45 50 50 48 46 44 42 40 32 28 28 24 19 14 10 6 2 1 3 5 6 7 9 9 10 9 7 7 7 7 7 8 12 10 11 10
73 66 63 61 57 51 45 44 52 51 46 42 40 38 36 30 25 22 19 16 12 8 4 1 2 4 5 7 8 9 9 8 9 6 2 2 5 6 6 4 9 8 9
72 67 64 62 58 54 49 44 48 49 44 41 39 37 32 27 23 20 18 15 11 7 4 3 5 7 7 7 6 6 6 6 7 7 5 4 7 7 7 3 3 5 8
71 68 67 63 59 55 51 48 47 47 46 43 39 36 30 25 23 21 18 15 12 10 8 9 10 9 7 6 5 5 6 6 5 6 9 10 3 3 10 7 6 10 7
71 69 67 65 59 55 51 49 47 46 45 41 37 33 29 26 24 20 18 17 13 10 10 11 9 8 7 8 8 8 6 7 6 6 10 12 8 5 15 14 9 10 9
70 67 64 61 57 54 52 50 48 45 43 39 35 32 28 25 22 21 19 16 14 13 12 10 10 10 11 13 11 11 11 8 8 9 12 10 11 3 2 5 10 11 15
70 66 62 58 54 51 48 48 47 45 42 38 33 29 26 25 24 22 18 16 15 14 12 12 13 15 14 13 13 11 10 10 11 13 16 13 12 14 6 4 10 11 12
67 65 61 58 55 50 48 47 46 44 40 35 31 28 27 26 25 21 18 17 15 15 13 15 15 14 15 16 14 11 11 12 13 16 20 20 18 16 14 10 8 12 12
63 61 61 60 55 52 49 47 45 41 36 32 29 27 25 24 23 21 19 16 15 12 12 11 13 16 19 21 20 17 15 15 14 15 20 20 22 20 16 17 12 11 15
61 58 60 59 56 54 52 48 46 40 34 31 29 27 25 25 24 21 18 15 13 9 7 12 17 20 20 21 23 20 18 17 14 17 19 24 27 25 17 16 14 13 11
60 58 58 57 55 54 52 49 47 39 34 30 28 27 26 24 22 20 18 15 10 7 7 9 13 16 18 16 13 14 13 8 11 17 22 25 29 31 25 20 20 17 16
64 60 57 56 54 52 50 48 45 40 35 30 25 23 23 22 21 20 18 14 10 9 14 16 15 19 20 16 18 10 8 10 15 17 15 20 27 28 28 24 21 22 21
61 59 57 55 52 51 49 46 41 37 32 27 22 19 18 21 21 25 20 16 12 11 14 17 17 18 22 25 19 9 11 14 20 20 22 16 20 24 27 26 25 24 22
63 56 55 54 52 50 46 43 37 34 30 26 23 22 22 23 24 22 27 18 14 15 17 19 21 20 23 21 19 12 15 17 27 30 30 23 25 31 37 34 32 28 27
61 57 55 54 52 48 44 41 37 33 30 25 24 23 23 20 22 20 19 20 15 16 19 19 21 23 20 19 20 20 19 24 25 33 29 33 44 39 41 41 37 31 35
58 53 50 51 50 48 44 40 36 32 28 27 26 22 18 11 9 17 19 23 19 18 16 19 20 19 22 22 21 24 29 28 31 33 25 24 42 48 42 36 38 38 39
50 47 43 43 48 49 44 40 36 31 30 28 24 24 20 16 14 12 12 17 22 21 21 24 24 25 26 25 26 29 32 28 27 27 29 24 18 23 27 26 27 33 29
52 46 39 36 40 45 44 41 38 37 33 31 28 26 23 21 20 21 22 18 14 26 29 29 31 32 33 30 29 29 30 31 33 32 33 31 26 22 20 24 29 33 32
50 49 45 43 37 34 33 37 43 43 40 35 31 28 27 26 24 26 23 20 20 23 30 35 35 33 32 30 36 35 34 38 35 34 33 26 30 29 29 26 26 26 31
52 51 51 49 45 41 41 40 44 45 43 39 36 31 27 27 26 28 29 27 24 22 24 28 29 33 37 37 40 38 37 41 45 36 29 27 30 31 22 26 27 21 28
62 62 61 60 55 54 52 51 50 50 46 44 41 35 33 32 30 30 28 28 27 27 21 23 31 39 39 35 40 41 45 46 41 29 16 29 26 22 22 25 29 29 20
69 68 68 66 64 59 58 53 51 46 40 36 35 38 39 43 44 42 37 31 28 29 30 28 30 36 41 39 41 43 45 51 16 15 37 22 22 21 16 18 19 23 28
82 79 75 72 70 66 63 62 61 58 55 49 44 41 43 48 53 55 51 41 37 36 35 35 38 43 47 43 44 43 29 22 53 41 42 24 23 30 25 24 23 23 22
88 81 79 75 74 72 70 70 66 58 53 42 36 32 36 47 51 50 48 47 39 36 37 40 41 45 46 50 46 52 52 52 51 47 42 46 41 33 28 32 31 25 23
84 81 79 79 76 74 73 70 65 62 54 45 40 38 36 37 41 38 37 38 41 44 46 45 46 52 55 58 55 56 52 55 56 56 68 58 48 45 42 40 40 32 28
78 79 79 81 78 74 74 72 70 62 54 53 47 46 39 35 40 40 40 42 44 47 47 48 51 53 50 52 55 59 62 60 58 54 57 61 60 54 46 45 44 39 34
Wind_Direction_500mb
170 166 163 159 153 152 146 149 155 150 150 148 148 148 149 148 144 149 154 155 154 149 147 138 46 21 10 357 351 345 340 340 339 1 19 63 76 98 111 121 131 137 144
164 167 167 163 158 154 149 148 154 157 158 156 158 157 157 157 152 155 160 165 171 170 172 165 20 3 338 333 334 325 324 306 296 294 297 86 104 141 157 150 135 144 151
167 167 170 167 165 161 155 151 152 161 164 166 167 166 163 165 168 170 175 181 191 199 208 272 309 309 307 314 325 322 317 307 276 256 232 171 125 140 162 181 249 189 172
168 169 171 171 172 169 165 163 161 163 166 170 170 172 173 178 183 184 192 203 219 235 252 280 295 294 300 304 306 305 313 314 288 239 200 179 123 225 212 212 237 220 208
170 172 170 174 176 177 176 176 176 175 175 178 180 183 185 187 193 202 213 224 234 250 265 280 285 291 292 293 301 295 283 283 285 207 186 212 248 270 224 271 209 232 228
172 173 172 175 177 181 184 186 188 187 185 185 187 186 188 197 209 221 231 240 248 263 277 283 290 295 301 304 300 290 277 258 262 214 190 208 201 185 227 237 234 222 227
171 173 176 177 178 181 184 186 186 185 184 183 187 195 203 212 219 229 233 242 259 274 282 288 297 304 306 302 300 294 286 270 244 231 210 210 217 233 234 253 264 236 237
171 174 177 179 180 181 183 181 181 182 186 191 198 206 214 221 226 231 240 253 264 271 286 300 305 305 305 300 292 285 276 268 255 237 229 231 210 228 247 256 240 227 220
173 175 178 180 182 182 183 183 184 187 191 197 206 213 219 223 228 234 245 251 259 279 285 300 307 310 310 307 299 290 276 269 264 247 240 241 221 244 245 245 240 236 229
177 179 179 179 181 183 184 186 187 190 200 207 218 224 226 227 232 234 237 242 251 262 295 308 315 316 323 325 315 298 287 284 270 261 247 238 238 245 249 243 235 244 247
182 183 183 183 183 184 188 191 194 204 210 216 221 229 234 235 234 231 229 224 229 255 279 324 341 357 333 329 345 313 299 291 271 256 246 237 234 236 236 243 249 248 257
184 186 187 188 189 189 193 197 203 209 215 221 228 237 238 233 228 220 215 225 247 282 299 320 322 335 348 342 341 308 279 296 284 261 263 243 240 238 239 231 246 255 249
185 188 189 192 194 197 200 204 208 214 219 226 233 236 232 228 227 225 220 234 249 286 313 314 334 334 344 349 355 307 285 300 287 274 252 247 247 245 246 246 253 253 252
191 193 195 196 199 202 207 210 214 219 224 229 232 230 233 238 243 247 232 240 259 285 307 316 315 324 325 339 339 321 278 298 297 286 272 258 257 259 260 256 255 257 258
194 196 200 202 203 207 210 214 219 224 229 232 234 234 234 240 239 234 241 235 260 284 303 313 319 320 319 331 336 329 324 314 297 294 282 260 269 269 263 265 269 262 263
193 198 204 208 210 210 213 217 220 224 229 228 219 206 208 215 236 244 248 242 242 283 288 297 319 324 329 325 347 334 328 316 309 312 307 309 262 263 267 274 272 268 275
197 203 208 212 215 216 218 220 221 220 221 203 196 199 210 225 239 251 259 256 256 276 286 296 306 312 316 316 325 327 325 315 309 307 293 296 274 277 251 267 276 280 266
207 208 206 210 215 217 221 221 220 213 210 210 212 216 222 229 236 249 258 267 285 272 275 284 288 297 309 310 312 316 319 317 310 306 302 294 296 273 259 269 295 278 254
213 213 211 210 208 201 204 211 215 216 221 221 222 226 231 239 247 256 262 274 282 285 277 274 281 286 302 303 309 308 317 319 319 313 314 303 301 300 262 276 302 283 256
219 219 218 216 216 213 210 210 212 218 224 229 233 237 240 247 250 261 269 274 276 283 285 275 274 275 293 298 306 305 314 321 320 308 313 317 306 308 278 275 257 290 254
224 225 223 223 223 221 220 218 220 225 229 234 237 240 246 253 263 269 273 272 264 265 284 282 272 272 285 292 304 306 308 313 322 311 308 319 321 305 300 270 252 263 271
229 229 229 229 229 230 229 230 231 236 242 248 249 248 250 256 261 266 268 270 273 271 274 278 282 285 285 286 296 303 313 316 340 317 324 319 325 333 322 310 290 279 260
232 232 233 234 234 234 235 233 235 238 242 246 250 252 255 260 262 263 263 267 272 272 276 281 282 287 286 287 289 288 296 294 311 315 314 326 323 325 320 325 317 303 288
233 237 239 240 239 239 237 236 239 242 246 252 259 268 269 262 257 257 258 261 259 265 273 282 283 281 286 280 281 278 282 282 290 303 300 302 303 318 314 314 317 307 290
233 236 240 243 243 243 241 242 244 246 252 256 258 261 263 261 251 247 246 256 263 270 277 283 290 293 287 284 281 283 279 280 280 278 287 296 298 296 302 300 300 300 287
232 236 239 242 245 246 246 245 247 250 255 257 257 258 261 257 240 239 247 256 265 273 279 286 291 289 291 292 289 282 276 271 274 276 278 286 289 291 291 294 299 293 285
Wind_Speed_850mb
63 60 61 58 54 47 42 45 50 50 48 46 44 42 40 32 28 28 24 19 14 10 6 2 1 3 5 6 7 9 9 10 9 7 7 7 7 7 8 12 10 11 10
73 66 63 61 57 51 45 44 52 51 46 42 40 38 36 30 25 22 19 16 12 8 4 1 2 4 5 7 8 9 9 8 9 6 2 2 5 6 6 4 9 8 9
72 67 64 62 58 54 49 44 48 49 44 41 39 37 32 27 23 20 18 15 11 7 4 3 5 7 7 7 6 6 6 6 7 7 5 4 7 7 7 3 3 5 8
71 68 67 63 59 55 51 48 47 47 46 43 39 36 30 25 23 21 18 15 12 10 8 9 10 9 7 6 5 5 6 6 5 6 9 10 3 3 10 7 6 10 7
71 69 67 65 59 55 51 49 47 46 45 41 37 33 29 26 24 20 18 17 13 10 10 11 9 8 7 8 8 8 6 7 6 6 10 12 8 5 15 14 9 10 9
70 67 64 61 57 54 52 50 48 45 43 39 35 32 28 25 22 21 19 16 14 13 12 10 10 10 11 13 11 11 11 8 8 9 12 10 11 3 2 5 10 11 15
70 66 62 58 54 51 48 48 47 45 42 38 33 29 26 25 24 22 18 16 15 14 12 12 13 15 14 13 13 11 10 10 11 13 16 13 12 14 6 4 10 11 12
67 65 61 58 55 50 48 47 46 44 40 35 31 28 27 26 25 21 18 17 15 15 13 15 15 14 15 16 14 11 11 12 13 16 20 20 18 16 14 10 8 12 12
63 61 61 60 55 52 49 47 45 41 36 32 29 27 25 24 23 21 19 16 15 12 12 11 13 16 19 21 20 17 15 15 14 15 20 20 22 20 16 17 12 11 15
61 58 60 59 56 54 52 48 46 40 34 31 29 27 25 25 24 21 18 15 13 9 7 12 17 20 20 21 23 20 18 17 14 17 19 24 27 25 17 16 14 13 11
60 58 58 57 55 54 52 49 47 39 34 30 28 27 26 24 22 20 18 15 10 7 7 9 13 16 18 16 13 14 13 8 11 17 22 25 29 31 25 20 20 17 16
64 60 57 56 54 52 50 48 45 40 35 30 25 23 23 22 21 20 18 14 10 9 14 16 15 19 20 16 18 10 8 10 15 17 15 20 27 28 28 24 21 22 21
61 59 57 55 52 51 49 46 41 37 32 27 22 19 18 21 21 25 20 16 12 11 14 17 17 18 22 25 19 9 11 14 20 20 22 16 20 24 27 26 25 24 22
63 56 55 54 52 50 46 43 37 34 30 26 23 22 22 23 24 22 27 18 14 15 17 19 21 20 23 21 19 12 15 17 27 30 30 23 25 31 37 34 32 28 27
61 57 55 54 52 48 44 41 37 33 30 25 24 23 23 20 22 20 19 20 15 16 19 19 21 23 20 19 20 20 19 24 25 33 29 33 44 39 41 41 37 31 35
58 53 50 51 50 48 44 40 36 32 28 27 26 22 18 11 9 17 19 23 19 18 16 19 20 19 22 22 21 24 29 28 31 33 25 24 42 48 42 36 38 38 39
50 47 43 43 48 49 44 40 36 31 30 28 24 24 20 16 14 12 12 17 22 21 21 24 24 25 26 25 26 29 32 28 27 27 29 24 18 23 27 26 27 33 29
52 46 39 36 40 45 44 41 38 37 33 31 28 26 23 21 20 21 22 18 14 26 29 29 31 32 33 30 29 29 30 31 33 32 33 31 26 22 20 24 29 33 32
50 49 45 43 37 34 33 37 43 43 40 35 31 28 27 26 24 26 23 20 20 23 30 35 35 33 32 30 36 35 34 38 35 34 33 26 30 29 29 26 26 26 31
52 51 51 49 45 41 41 40 44 45 43 39 36 31 27 27 26 28 29 27 24 22 24 28 29 33 37 37 40 38 37 41 45 36 29 27 30 31 22 26 27 21 28
62 62 61 60 55 54 52 51 50 50 46 44 41 35 33 32 30 30 28 28 27 27 21 23 31 39 39 35 40 41 45 46 41 29 16 29 26 22 22 25 29 29 20
69 68 68 66 64 59 58 53 51 46 40 36 35 38 39 43 44 42 37 31 28 29 30 28 30 36 41 39 41 43 45 51 16 15 37 22 22 21 16 18 19 23 28
82 79 75 72 70 66 63 62 61 58 55 49 44 41 43 48 53 55 51 41 37 36 35 35 38 43 47 43 44 43 29 22 53 41 42 24 23 30 25 24 23 23 22
88 81 79 75 74 72 70 70 66 58 53 42 36 32 36 47 51 50 48 47 39 36 37 40 41 45 46 50 46 52 52 52 51 47 42 46 41 33 28 32 31 25 23
84 81 79 79 76 74 73 70 65 62 54 45 40 38 36 37 41 38 37 38 41 44 46 45 46 52 55 58 55 56 52 55 56 56 68 58 48 45 42 40 40 32 28
78 79 79 81 78 74 74 72 70 62 54 53 47 46 39 35 40 40 40 42 44 47 47 48 51 53 50 52 55 59 62 60 58 54 57 61 60 54 46 45 44 39 34
Wind_Direction_850mb
170 166 163 159 153 152 146 149 155 150 150 148 148 148 149 148 144 149 154 155 154 149 147 138 46 21 10 357 351 345 340 340 339 1 19 63 76 98 111 121 131 137 144
164 167 167 163 158 154 149 148 154 157 158 156 158 157 157 157 152 155 160 165 171 170 172 165 20 3 338 333 334 325 324 306 296 294 297 86 104 141 157 150 135 144 151
167 167 170 167 165 161 155 151 152 161 164 166 167 166 163 165 168 170 175 181 191 199 208 272 309 309 307 314 325 322 317 307 276 256 232 171 125 140 162 181 249 189 172
168 169 171 171 172 169 165 163 161 163 166 170 170 172 173 178 183 184 192 203 219 235 252 280 295 294 300 304 306 305 313 314 288 239 200 179 123 225 212 212 237 220 208
170 172 170 174 176 177 176 176 176 175 175 178 180 183 185 187 193 202 213 224 234 250 265 280 285 291 292 293 301 295 283 283 285 207 186 212 248 270 224 271 209 232 228
172 173 172 175 177 181 184 186 188 187 185 185 187 186 188 197 209 221 231 240 248 263 277 283 290 295 301 304 300 290 277 258 262 214 190 208 201 185 227 237 234 222 227
171 173 176 177 178 181 184 186 186 185 184 183 187 195 203 212 219 229 233 242 259 274 282 288 297 304 306 302 300 294 286 270 244 231 210 210 217 233 234 253 264 236 237
171 174 177 179 180 181 183 181 181 182 186 191 198 206 214 221 226 231 240 253 264 271 286 300 305 305 305 300 292 285 276 268 255 237 229 231 210 228 247 256 240 227 220
173 175 178 180 182 182 183 183 184 187 191 197 206 213 219 223 228 234 245 251 259 279 285 300 307 310 310 307 299 290 276 269 264 247 240 241 221 244 245 245 240 236 229
177 179 179 179 181 183 184 186 187 190 200 207 218 224 226 227 232 234 237 242 251 262 295 308 315 316 323 325 315 298 287 284 270 261 247 238 238 245 249 243 235 244 247
182 183 183 183 183 184 188 191 194 204 210 216 221 229 234 235 234 231 229 224 229 255 279 324 341 357 333 329 345 313 299 291 271 256 246 237 234 236 236 243 249 248 257
184 186 187 188 189 189 193 197 203 209 215 221 228 237 238 233 228 220 215 225 247 282 299 320 322 335 348 342 341 308 279 296 284 261 263 243 240 238 239 231 246 255 249
185 188 189 192 194 197 200 204 208 214 219 226 233 236 232 228 227 225 220 234 249 286 313 314 334 334 344 349 355 307 285 300 287 274 252 247 247 245 246 246 253 253 252
191 193 195 196 199 202 207 210 214 219 224 229 232 230 233 238 243 247 232 240 259 285 307 316 315 324 325 339 339 321 278 298 297 286 272 258 257 259 260 256 255 257 258
194 196 200 202 203 207 210 214 219 224 229 232 234 234 234 240 239 234 241 235 260 284 303 313 319 320 319 331 336 329 324 314 297 294 282 260 269 269 263 265 269 262 263
193 198 204 208 210 210 213 217 220 224 229 228 219 206 208 215 236 244 248 242 242 283 288 297 319 324 329 325 347 334 328 316 309 312 307 309 262 263 267 274 272 268 275
197 203 208 212 215 216 218 220 221 220 221 203 196 199 210 225 239 251 259 256 256 276 286 296 306 312 316 316 325 327 325 315 309 307 293 296 274 277 251 267 276 280 266
207 208 206 210 215 217 221 221 220 213 210 210 212 216 222 229 236 249 258 267 285 272 275 284 288 297 309 310 312 316 319 317 310 306 302 294 296 273 259 269 295 278 254
213 213 211 210 208 201 204 211 215 216 221 221 222 226 231 239 247 256 262 274 282 285 277 274 281 286 302 303 309 308 317 319 319 313 314 303 301 300 262 276 302 283 256
219 219 218 216 216 213 210 210 212 218 224 229 233 237 240 247 250 261 269 274 276 283 285 275 274 275 293 298 306 305 314 321 320 308 313 317 306 308 278 275 257 290 254
224 225 223 223 223 221 220 218 220 225 229 234 237 240 246 253 263 269 273 272 264 265 284 282 272 272 285 292 304 306 308 313 322 311 308 319 321 305 300 270 252 263 271
229 229 229 229 229 230 229 230 231 236 242 248 249 248 250 256 261 266 268 270 273 271 274 278 282 285 285 286 296 303 313 316 340 317 324 319 325 333 322 310 290 279 260
232 232 233 234 234 234 235 233 235 238 242 246 250 252 255 260 262 263 263 267 272 272 276 281 282 287 286 287 289 288 296 294 311 315 314 326 323 325 320 325 317 303 288
233 237 239 240 239 239 237 236 239 242 246 252 259 268 269 262 257 257 258 261 259 265 273 282 283 281 286 280 281 278 282 282 290 303 300 302 303 318 314 314 317 307 290
233 236 240 243 243 243 241 242 244 246 252 256 258 261 263 261 251 247 246 256 263 270 277 283 290 293 287 284 281 283 279 280 280 278 287 296 298 296 302 300 300 300 287
232 236 239 242 245 246 246 245 247 250 255 257 257 258 261 257 240 239 247 256 265 273 279 286 291 289 291 292 289 282 276 271 274 276 278 286 289 291 291 294 299 293 285